Temporada 2024 · Ronda 16

Italian Grand Prix

2024-09-01 · Autodromo Nazionale di Monza · Italy · Italian Grand Prix · 53Lap · 306.720km
Ferrari 1:14:40.727
Victoria de equipo 37pt P1 · P4
McLaren +2.664
McLaren +6.153
Vuelta rápida
1:21.432 · L53
Abandono
1
Yuki Tsunoda L7
Clima
33°/49°
media aire/pista · seco · humedad 32%
Coche de seguridad
0
Despliegues de SC/VSC
Uso de neumáticos Dirección de carrera
Storylines · This Grand Prix & circuit
Más victorias en este GP
Lewis Hamilton activo 5 victorias
Michael Schumacher 5 victorias
Nelson Piquet 4 victorias
Conversión pole-victoria 26/75 34.7%
Most DNFs · all-time P2
Final más ajustado · all-time P1
Circuito Info
53Lap 306.720km 76 carreras held (1950–) Récord de vuelta 1:20.901 · Lando Norris (2025)
Récords Watch · Active drivers ranked at this Grand Prix
P1 Lewis Hamilton 5 victorias · GP #1
P4 Max Verstappen 3 victorias · → Nelson Piquet -1
P11 Fernando Alonso 2 victorias · → Sebastian Vettel -1
P1 Fernando Alonso 22 salidas · GP #1
P2 Lewis Hamilton 19 salidas · → Fernando Alonso -3
P12 Sergio Pérez 14 salidas · → Jarno Trulli -1
Carrera Trace · position by lap
salida parada SG 1 5 9 13 17 21 25 29 33 37 41 45 49 53 FIN Leclerc · parada en boxes L15 Leclerc LEC Leclerc LEC Piastri · parada en boxes L16 Piastri · parada en boxes L38 Piastri PIA Piastri PIA Norris · parada en boxes L14 Norris · parada en boxes L32 Norris NOR Norris NOR Sainz · parada en boxes L19 Sainz SAI Sainz SAI Hamilton · parada en boxes L15 Hamilton · parada en boxes L37 Hamilton HAM Hamilton HAM Verstappen · parada en boxes L22 Verstappen · parada en boxes L41 Verstappen VER Verstappen VER Russell · parada en boxes L11 Russell · parada en boxes L33 Russell RUS Russell RUS Pérez · parada en boxes L23 Pérez · parada en boxes L35 Pérez PER Pérez PER Albon · parada en boxes L17 Albon ALB Albon ALB Magnussen · parada en boxes L14 Magnussen · +10s sumado tras la carrera Magnussen MAG Magnussen MAG Alonso · parada en boxes L12 Alonso · parada en boxes L35 Alonso ALO Alonso ALO Colapinto · parada en boxes L16 Colapinto COL Colapinto COL Ricciardo · parada en boxes L11 · sanción cumplida Ricciardo · +10s sumado tras la carrera Ricciardo RIC Ricciardo RIC Ocon · parada en boxes L31 Ocon OCO Ocon OCO Gasly · parada en boxes L10 Gasly · parada en boxes L30 Gasly GAS Gasly GAS Bottas · parada en boxes L33 Bottas BOT Bottas BOT Hülkenberg · parada en boxes L5 Hülkenberg · parada en boxes L32 · sanción cumplida Hülkenberg HUL Hülkenberg HUL Zhou · parada en boxes L15 Zhou ZHO Zhou ZHO Stroll · parada en boxes L19 Stroll · parada en boxes L36 Stroll · parada en boxes L50 Stroll STR Stroll STR Tsunoda · abandono L7 Tsunoda TSU Tsunoda TSU
parada en boxes sanción cumplida en boxes SG Parrilla de salida FIN clasificación oficial sanción sumada tras la carrera coche detenido posición en cada vuelta (desde 1996)
PosPilotoTeamParrillaVueltaTiempo / EstadoPuntos
1 16 Charles Leclerc Ferrari 4 53 1:14:40.727 25
2 81 Oscar Piastri McLaren 2 53 +2.664 18
3 4 Lando Norris FL McLaren 1 53 +6.153 16
4 55 Carlos Sainz Ferrari 5 53 +15.621 12
5 44 Lewis Hamilton Mercedes 6 53 +22.820 10
6 1 Max Verstappen Red Bull 7 53 +37.932 8
7 63 George Russell Mercedes 3 53 +39.715 6
8 11 Sergio Pérez Red Bull 8 53 +54.148 4
9 23 Alexander Albon Williams 9 53 +1:07.456 2
10 20 Kevin Magnussen Haas F1 Team 13 53 +1:08.302 1
11 14 Fernando Alonso Aston Martin 11 53 +1:08.495
12 43 Franco Colapinto Williams 18 53 +1:21.308
13 3 Daniel Ricciardo RB F1 Team 12 53 +1:33.452
14 31 Esteban Ocon Alpine F1 Team 15 52 +12.659
15 10 Pierre Gasly Alpine F1 Team 14 52 +18.344
16 77 Valtteri Bottas Sauber 19 52 +27.211
17 27 Nico Hülkenberg Haas F1 Team 10 52 +30.870
18 24 Guanyu Zhou Sauber 20 52 +40.055
19 18 Lance Stroll Aston Martin 17 52 +43.508
R 22 Yuki Tsunoda RB F1 Team 16 7 Retired
PosPilotoTeamQ1Q2Q3Diferencia con la pole
1 4 Lando Norris McLaren 1:19.911 1:19.727 1:19.327 POLE Q3
2 81 Oscar Piastri McLaren 1:20.076 1:19.808 1:19.436 +0.109 Q3
3 63 George Russell Mercedes 1:20.169 1:19.877 1:19.440 +0.113 Q3
4 16 Charles Leclerc Ferrari 1:20.074 1:20.007 1:19.461 +0.134 Q3
5 55 Carlos Sainz Ferrari 1:20.149 1:19.799 1:19.467 +0.140 Q3
6 44 Lewis Hamilton Mercedes 1:20.477 1:19.641 1:19.513 +0.186 Q3
7 1 Max Verstappen Red Bull 1:20.226 1:19.662 1:20.022 +0.335 Q2
8 11 Sergio Pérez Red Bull 1:20.598 1:20.216 1:20.062 +0.735 Q3
9 23 Alexander Albon Williams 1:20.542 1:20.314 1:20.299 +0.972 Q3
10 27 Nico Hülkenberg Haas F1 Team 1:20.781 1:20.411 1:20.339 +1.012 Q3
11 14 Fernando Alonso Aston Martin 1:20.617 1:20.421 +1.094 Q2
12 3 Daniel Ricciardo RB F1 Team 1:20.901 1:20.479 +1.152 Q2
13 20 Kevin Magnussen Haas F1 Team 1:20.856 1:20.698 +1.371 Q2
14 10 Pierre Gasly Alpine F1 Team 1:20.748 1:20.738 +1.411 Q2
15 31 Esteban Ocon Alpine F1 Team 1:20.764 1:20.766 +1.437 Q1
16 22 Yuki Tsunoda RB F1 Team 1:20.945 +1.618 Q1
17 18 Lance Stroll Aston Martin 1:21.013 +1.686 Q1
18 43 Franco Colapinto Williams 1:21.061 +1.734 Q1
19 77 Valtteri Bottas Sauber 1:21.101 +1.774 Q1
20 24 Guanyu Zhou Sauber 1:21.445 +2.118 Q1
Parrilla de salida
Oficial
Final grid as clasificado, including any desde el pit lane salidas. Source: Jolpica-F1. The arrow compares the grid slot with the clasificación classification; hover a drop to see the stewards document behind it.
No hay datos de esta sesión.
PosPilotoMejor vueltaDiferenciaVueltas
1 1 Max Verstappen 1:21.676 19
2 16 Charles Leclerc 1:21.904 +0.228 23
3 4 Lando Norris 1:21.917 +0.241 26
4 55 Carlos Sainz 1:22.126 +0.450 24
5 77 Valtteri Bottas 1:22.127 +0.451 21
6 81 Oscar Piastri 1:22.199 +0.523 23
7 44 Lewis Hamilton 1:22.214 +0.538 24
8 23 Alexander Albon 1:22.220 +0.544 24
9 11 Sergio Pérez 1:22.311 +0.635 21
10 14 Fernando Alonso 1:22.315 +0.639 18
11 20 Kevin Magnussen 1:22.572 +0.896 22
12 3 Daniel Ricciardo 1:22.605 +0.929 21
13 22 Yuki Tsunoda 1:22.714 +1.038 23
14 10 Pierre Gasly 1:22.763 +1.087 22
15 24 Guanyu Zhou 1:22.854 +1.178 22
16 18 Lance Stroll 1:22.864 +1.188 21
17 31 Esteban Ocon 1:22.880 +1.204 21
18 43 Franco Colapinto 1:22.880 +1.204 23
19 27 Nico Hülkenberg 1:23.157 +1.481 23
20 12 Andrea Kimi Antonelli 1:23.955 +2.279 5
Classified by best lap · source OpenF1 (2023+)
PosPilotoMejor vueltaDiferenciaVueltas
1 44 Lewis Hamilton 1:20.738 24
2 4 Lando Norris 1:20.741 +0.003 23
3 55 Carlos Sainz 1:20.841 +0.103 27
4 81 Oscar Piastri 1:20.858 +0.120 24
5 16 Charles Leclerc 1:20.892 +0.154 26
6 63 George Russell 1:21.086 +0.348 20
7 27 Nico Hülkenberg 1:21.140 +0.402 25
8 3 Daniel Ricciardo 1:21.300 +0.562 23
9 14 Fernando Alonso 1:21.316 +0.578 24
10 18 Lance Stroll 1:21.363 +0.625 27
11 77 Valtteri Bottas 1:21.461 +0.723 25
12 20 Kevin Magnussen 1:21.499 +0.761 11
13 23 Alexander Albon 1:21.592 +0.854 25
14 1 Max Verstappen 1:21.610 +0.872 24
15 11 Sergio Pérez 1:21.678 +0.940 14
16 22 Yuki Tsunoda 1:21.735 +0.997 20
17 43 Franco Colapinto 1:21.784 +1.046 20
18 10 Pierre Gasly 1:21.819 +1.081 23
19 31 Esteban Ocon 1:21.867 +1.129 22
20 24 Guanyu Zhou 1:22.223 +1.485 27
Classified by best lap · source OpenF1 (2023+)
PosPilotoMejor vueltaDiferenciaVueltas
1 44 Lewis Hamilton 1:20.117 20
2 63 George Russell 1:20.210 +0.093 24
3 16 Charles Leclerc 1:20.226 +0.109 22
4 81 Oscar Piastri 1:20.252 +0.135 15
5 4 Lando Norris 1:20.262 +0.145 15
6 1 Max Verstappen 1:20.368 +0.251 24
7 55 Carlos Sainz 1:20.463 +0.346 20
8 23 Alexander Albon 1:20.596 +0.479 15
9 43 Franco Colapinto 1:20.905 +0.788 17
10 27 Nico Hülkenberg 1:20.943 +0.826 18
11 14 Fernando Alonso 1:20.968 +0.851 22
12 3 Daniel Ricciardo 1:21.077 +0.960 18
13 22 Yuki Tsunoda 1:21.141 +1.024 15
14 10 Pierre Gasly 1:21.155 +1.038 20
15 18 Lance Stroll 1:21.157 +1.040 23
16 20 Kevin Magnussen 1:21.208 +1.091 21
17 31 Esteban Ocon 1:21.258 +1.141 19
18 11 Sergio Pérez 1:21.287 +1.170 23
19 77 Valtteri Bottas 1:21.357 +1.240 20
20 24 Guanyu Zhou 1:22.035 +1.918 18
Classified by best lap · source OpenF1 (2023+)
#PilotoTiempo de vueltaVuelta
1 4 Lando Norris 1:21.432 L53
2 44 Lewis Hamilton 1:21.512 L53
3 1 Max Verstappen 1:21.745 L43
4 4 Lando Norris 1:21.824 L48
5 81 Oscar Piastri 1:21.943 L53
6 81 Oscar Piastri 1:21.948 L52
7 63 George Russell 1:22.036 L49
8 4 Lando Norris 1:22.041 L46
9 81 Oscar Piastri 1:22.066 L41
10 81 Oscar Piastri 1:22.092 L43
Top 10 más rápida race vueltas — #1 is the más rápida lap of la carrera(FL).
Paradas · cómo se comparan
25s 30s 35s mediana 24.7s Oscar Piastri · L16 · 23.793s Sergio Pérez · L35 · 24.030s Esteban Ocon · L31 · 24.146s Max Verstappen · L41 · 24.150s Lewis Hamilton · L37 · 24.155s Lando Norris · L14 · 24.169s Pierre Gasly · L30 · 24.203s Lance Stroll · L36 · 24.209s Carlos Sainz · L19 · 24.313s Pierre Gasly · L10 · 24.335s Valtteri Bottas · L33 · 24.410s Lewis Hamilton · L15 · 24.469s Fernando Alonso · L35 · 24.501s Charles Leclerc · L15 · 24.551s Oscar Piastri · L38 · 24.670s Sergio Pérez · L23 · 24.728s Alexander Albon · L17 · 24.801s Fernando Alonso · L12 · 24.866s Lando Norris · L32 · 24.870s Lance Stroll · L19 · 24.980s Franco Colapinto · L16 · 25.147s Lance Stroll · L50 · 25.269s Kevin Magnussen · L14 · 25.672s George Russell · L33 · 26.297s Guanyu Zhou · L15 · 27.138s Max Verstappen · L22 · 28.198s Daniel Ricciardo · L11 · 30.317s · sanción cumplida George Russell · L11 · 32.696s Nico Hülkenberg · L32 · 36.576s · sanción cumplida Nico Hülkenberg · L5 · 38.875s
más rápida 23.793s Oscar Piastri más lenta 38.875s Nico Hülkenberg sanción cumplida tiempo de paso por el desde el pit lane — un punto por parada
PilotoParadaVueltaTiempoPaso por el desde el pit lane
27 Nico Hülkenberg 1 5 15:10:58 38.875s
10 Pierre Gasly 1 10 15:18:08 24.335s
3 Daniel Ricciardo 1 11 15:19:31 30.317s
63 George Russell 1 11 15:19:22 32.696s
14 Fernando Alonso 1 12 15:20:54 24.866s
20 Kevin Magnussen 1 14 15:23:48 25.672s
4 Lando Norris 1 14 15:23:26 24.169s
44 Lewis Hamilton 1 15 15:24:58 24.469s
24 Guanyu Zhou 1 15 15:25:28 27.138s
16 Charles Leclerc 1 15 15:24:52 24.551s
81 Oscar Piastri 1 16 15:26:13 23.793s
43 Franco Colapinto 1 16 15:26:50 25.147s
23 Alexander Albon 1 17 15:28:04 24.801s
18 Lance Stroll 1 19 15:31:07 24.980s
55 Carlos Sainz 1 19 15:30:37 24.313s
1 Max Verstappen 1 22 15:34:56 28.198s
11 Sergio Pérez 1 23 15:36:25 24.728s
10 Pierre Gasly 2 30 15:47:05 24.203s
31 Esteban Ocon 1 31 15:48:20 24.146s
27 Nico Hülkenberg 2 32 15:50:05 36.576s
4 Lando Norris 2 32 15:48:59 24.870s
77 Valtteri Bottas 1 33 15:51:24 24.410s
63 George Russell 2 33 15:50:51 26.297s
14 Fernando Alonso 2 35 15:53:55 24.501s
11 Sergio Pérez 2 35 15:53:38 24.030s
18 Lance Stroll 2 36 15:55:36 24.209s
44 Lewis Hamilton 2 37 15:56:11 24.155s
81 Oscar Piastri 2 38 15:57:15 24.670s
1 Max Verstappen 2 41 16:01:54 24.150s
18 Lance Stroll 3 50 16:15:41 25.269s
paradas
SG 10 20 30 40 L53
16
1
M14
H39
81
2
M15
H22
H16
4
2
M13
H18
H22
55
1
M18
H35
44
2
M14
H22
H17
1
2
H21
H19
M13
63
2
M10
H22
H21
11
2
H22
H12
M19
23
1
M16
H37
20
1
M13
H40
14
2
M11·+1
H23·+1
H19·+2
43
1
M15
H38
3
1
M10
H43·+1
31
1
H30
M22
10
2
M9
H20
H23
77
1
H32·+1
M20·+1
27
2
M4
H27
H21
24
1
M14·+1
H38·+1
18
3
H18·+1
H17·+1
M14·+1
S3
22
0
H7·+1
S Soft M Medium H Hard I Intermediate W Wet SC·VSC parada en boxes sanción cumplida en boxes
Carrera · ancho de barra = vueltas con ese juego, ·+N = montado usado con N vueltas previas · fuente OpenF1 (2023+)
Compuestos designados para este Gran Premio
C3 Duro C4 Medio C5 Blando
Pirelli designa tres de sus compuestos secos para cada prueba; cuanto mayor es el número C, más blando es el neumático. Documento FIA ↗
Más puestos ganados en pista
18
+15
P17→P19
63
+13
P3→P7
20
+13
P13→P10
43
+13
P18→P12
77
+12
P19→P16
24
+12
P20→P18
14
+11
P11→P11
31
+11
P15→P14
Más puestos perdidos
Lance Stroll −17 George Russell −13 Fernando Alonso −12
Carrera · Suma de posiciones ganadas en pista vuelta a vuelta — se excluyen la vuelta de salida y las vueltas de boxes propias. Datos de vueltas de carrera desde 1996.
PilotoTipoVueltaCumplidaImpuestaMotivo
20 Kevin Magnussen Penalty points 12pt The driver of Car 20 has accrued 12 penalty points in the past 12-month period of the 2024 FIA Formula One Campeonato Mundial. (The Super Licence of the driver of Car 20 is suspended for the next Competition of the 2024 FIA Form) Doc 60 ↗
12pt The driver of Car 20 has accrued 12 penalty points in the past 12-month period of the 2024 FIA Formula One Campeonato Mundial. (The Super Licence of the driver of Car 20 is suspended for the next Competition of the 2024 FIA Form) Doc 60 ↗
3 Daniel Ricciardo Time penalty 9 11 +5s · 1pt Car 3 forced Car 27 off the track at the approach to Turn 8. (5 second time penalty. 1 penalty point (total of 3 for the 12 month period).) Doc 54 ↗
Vuelta 9 · Cumplida 11 · +5s · 1pt Car 3 forced Car 27 off the track at the approach to Turn 8. (5 second time penalty. 1 penalty point (total of 3 for the 12 month period).) Doc 54 ↗
27 Nico Hülkenberg Time penalty 9 32 +10s · 2pt Car 27 collided with Car 22 at the entry to Turn 1. (10 second time penalty. 2 penalty points (total of 4 for the 12 month period).) Doc 55 ↗
Vuelta 9 · Cumplida 32 · +10s · 2pt Car 27 collided with Car 22 at the entry to Turn 1. (10 second time penalty. 2 penalty points (total of 4 for the 12 month period).) Doc 55 ↗
3 Daniel Ricciardo Time penalty 18 Tras la carrera +10s A mechanic worked on the car whilst it was serving a time penalty during a parada en boxes. (10 second time penalty.) Doc 56 ↗
Vuelta 18 · Cumplida Tras la carrera · +10s A mechanic worked on the car whilst it was serving a time penalty during a parada en boxes. (10 second time penalty.) Doc 56 ↗
20 Kevin Magnussen Time penalty 25 Tras la carrera +10s · 2pt Car 20 collided with Car 10 at the entry to turn 4. (10 second time penalty. 2 penalty points (total of 12 for the 12 month period).) Doc 57 ↗
Vuelta 25 · Cumplida Tras la carrera · +10s · 2pt Car 20 collided with Car 10 at the entry to turn 4. (10 second time penalty. 2 penalty points (total of 12 for the 12 month period).) Doc 57 ↗
22 Yuki Tsunoda Vueltas eliminadas 9 TRACK LIMITS (PIT)
Vuelta 9 TRACK LIMITS (PIT)
Vuelta = vuelta en que se impuso la sanción · Cumplida = vuelta en que se cumplió en boxes (en blanco: se sumó al tiempo de carrera)
Time, drive-through and stop-go penalties come from race control messages (OpenF1, 2023+). Parrilla penalties never appear there — the stewards publish them as documents after the session — so they are worked back from the starting grid against the clasificación classification, which gives places actually lost rather than the figure written in the decision.
PilotoTipoVueltaCumplidaImpuestaMotivo
81 Oscar Piastri Fine €10,000 Car 81 was released unsafely into the path of Car 1. (The competitor (McLaren Formula 1 Team) is fined €10,000.) Doc 45 ↗
€10,000 Car 81 was released unsafely into the path of Car 1. (The competitor (McLaren Formula 1 Team) is fined €10,000.) Doc 45 ↗
44 Lewis Hamilton Vueltas eliminadas TRACK LIMITS (PIT)
TRACK LIMITS (PIT)
20 Kevin Magnussen Vueltas eliminadas TRACK LIMITS
TRACK LIMITS
43 Franco Colapinto Vueltas eliminadas TRACK LIMITS (PIT)
TRACK LIMITS (PIT)
27 Nico Hülkenberg Vueltas eliminadas TRACK LIMITS
TRACK LIMITS
Vuelta = vuelta en que se impuso la sanción · Cumplida = vuelta en que se cumplió en boxes (en blanco: se sumó al tiempo de carrera)
Time, drive-through and stop-go penalties come from race control messages (OpenF1, 2023+). Parrilla penalties never appear there — the stewards publish them as documents after the session — so they are worked back from the starting grid against the clasificación classification, which gives places actually lost rather than the figure written in the decision.
PilotoTipoVueltaCumplidaImpuestaMotivo
11 Sergio Pérez No further action The driver of Car 11 did not follow the Carrera Director’s Event Notes regarding the escape road instructions at Turns 4/5. (No further action.) Doc 44 ↗
The driver of Car 11 did not follow the Carrera Director’s Event Notes regarding the escape road instructions at Turns 4/5. (No further action.) Doc 44 ↗
18 Lance Stroll No further action Car 18 did not follow the Carrera Director’s Event Notes regarding the escape road instructions at Turns 4/5. (No further action.) Doc 37 ↗
Car 18 did not follow the Carrera Director’s Event Notes regarding the escape road instructions at Turns 4/5. (No further action.) Doc 37 ↗
81 Oscar Piastri No further action Car 81 allegedly impeding Car 3 in turn 7. (No further action.) Doc 35 ↗
Car 81 allegedly impeding Car 3 in turn 7. (No further action.) Doc 35 ↗
43 Franco Colapinto Black-and-white flag warning Completed a practice start in the incorrect location. (Formal warning.) Doc 43 ↗
Completed a practice start in the incorrect location. (Formal warning.) Doc 43 ↗
Vuelta = vuelta en que se impuso la sanción · Cumplida = vuelta en que se cumplió en boxes (en blanco: se sumó al tiempo de carrera)
Time, drive-through and stop-go penalties come from race control messages (OpenF1, 2023+). Parrilla penalties never appear there — the stewards publish them as documents after the session — so they are worked back from the starting grid against the clasificación classification, which gives places actually lost rather than the figure written in the decision.
PilotoTipoVueltaCumplidaImpuestaMotivo
20 Kevin Magnussen Fine €7,500 Car 20 impeded Car 55 in turn 7. (The competitor (MoneyGram Haas F1 Team) is fined €7,500.) Doc 17 ↗
€7,500 Car 20 impeded Car 55 in turn 7. (The competitor (MoneyGram Haas F1 Team) is fined €7,500.) Doc 17 ↗
Vuelta = vuelta en que se impuso la sanción · Cumplida = vuelta en que se cumplió en boxes (en blanco: se sumó al tiempo de carrera)
Time, drive-through and stop-go penalties come from race control messages (OpenF1, 2023+). Parrilla penalties never appear there — the stewards publish them as documents after the session — so they are worked back from the starting grid against the clasificación classification, which gives places actually lost rather than the figure written in the decision.
DocTítuloAsuntoPublished(CET)
1 Event Notes - Pirelli Preview ↗ 2024-08-28 14:32
2024-08-28 14:32 CET
2 Carrera Director's Event Notes ↗ 2024-08-29 11:56
2024-08-29 11:56 CET
3 Event Notes - Circuito Map, Pit Lane Drawing and Red Zones ↗ 2024-08-29 15:52
2024-08-29 15:52 CET
4 Car Display Procedure ↗ 2024-08-29 19:53
2024-08-29 19:53 CET
5 PU elements usados per driver up to now ↗ 2024-08-30 10:11
2024-08-30 10:11 CET
6 RNCs usados per driver up to now ↗ 2024-08-30 10:11
2024-08-30 10:11 CET
7 Self scrutineering ↗ 2024-08-30 10:12
2024-08-30 10:12 CET
8 Car Presentation Submissions ↗ 2024-08-30 11:00
2024-08-30 11:00 CET
9 Entry List ↗ 2024-08-30 11:30
2024-08-30 11:30 CET
10 New PU elements for this Competition ↗ 2024-08-30 13:46
2024-08-30 13:46 CET
11 New RNCs for this Competition ↗ 2024-08-30 13:49
2024-08-30 13:49 CET
12 Summons - Car 20 - Alleged impeding of Car 55 ↗ 20 Kevin Magnussen 2024-08-30 14:03
20 Kevin Magnussen 2024-08-30 14:03 CET
13 Summons - Car 55 - Alleged impeding by Car 20 ↗ 55 Carlos Sainz 2024-08-30 14:03
55 Carlos Sainz 2024-08-30 14:03 CET
14 P1 Classification ↗ 2024-08-30 14:51
2024-08-30 14:51 CET
16 Carrera Director's Event Notes V2 ↗ 2024-08-30 16:02
2024-08-30 16:02 CET
17 Infringement - Car 20 - Impeding of Car 55 (Corrected) ↗ 20 Kevin Magnussen 2024-08-30 16:15
20 Kevin Magnussen 2024-08-30 16:15 CET
18 P2 Classification ↗ 2024-08-30 18:21
2024-08-30 18:21 CET
19 Carrera Director's Note - SC2-SC1 Time ↗ 2024-08-30 19:03
2024-08-30 19:03 CET
20 P1 and P2 Scrutineering ↗ 2024-08-30 20:11
2024-08-30 20:11 CET
21 RNC usados outside allocation ↗ 2024-08-30 20:11
2024-08-30 20:11 CET
22 Carrera Director's Event Notes V3 ↗ 2024-08-31 10:03
2024-08-31 10:03 CET
23 Post-Clasificación Procedure ↗ 2024-08-31 10:56
2024-08-31 10:56 CET
24 New PU elements for this Competition ↗ 2024-08-31 13:00
2024-08-31 13:00 CET
25 New RNCs for this Competition ↗ 2024-08-31 13:01
2024-08-31 13:01 CET
27 Summons - Car 81 - Alleged impeding of Car 3 ↗ 81 Oscar Piastri 2024-08-31 13:47
81 Oscar Piastri 2024-08-31 13:47 CET
29 Summons - Car 16 - Alleged impeding of Car 3 ↗ 16 Charles Leclerc 2024-08-31 13:47
16 Charles Leclerc 2024-08-31 13:47 CET
30 Summons - Car 3 - Alleged impeding by Car 81 ↗ 3 Daniel Ricciardo 2024-08-31 13:51
3 Daniel Ricciardo 2024-08-31 13:51 CET
31 P3 Classification ↗ 2024-08-31 16:36
2024-08-31 16:36 CET
32 Summons - car 18 - Alleged failure to follow Carrera Director's instructions (Escape Road) ↗ 18 Lance Stroll 2024-08-31 14:00
18 Lance Stroll 2024-08-31 14:00 CET
33 Summons - car 11 - Alleged failure to follow Carrera Director's instructions (Escape Road) ↗ 11 Sergio Pérez 2024-08-31 14:04
11 Sergio Pérez 2024-08-31 14:04 CET
34 Summons - Car 43 - Alleged practice start infringement ↗ 43 Franco Colapinto 2024-08-31 14:15
43 Franco Colapinto 2024-08-31 14:15 CET
35 Decision - Car 81 - Alleged impeding of Car 3 ↗ 81 Oscar Piastri 2024-08-31 15:16
81 Oscar Piastri 2024-08-31 15:16 CET
36 Postponement of Hearings for Car 11 and Car 43 ↗ 11 Sergio Pérez 2024-08-31 15:21
11 Sergio Pérez 2024-08-31 15:21 CET
37 Decision - Car 18 - Alleged failure to follow Carrera Director's instructions (Escape Road) ↗ 18 Lance Stroll 2024-08-31 16:01
18 Lance Stroll 2024-08-31 16:01 CET
38 Summons - Car 81 - Alleged unsafe release ↗ 81 Oscar Piastri 2024-08-31 16:33
81 Oscar Piastri 2024-08-31 16:33 CET
39 Summons - Car 1 - Alleged unsafe release of Car 81 ↗ 1 Max Verstappen 2024-08-31 16:35
1 Max Verstappen 2024-08-31 16:35 CET
40 Provisional Clasificación Classification ↗ 2024-08-31 17:20
2024-08-31 17:20 CET
41 Infringement - Clasificación Deleted Vuelta Times ↗ 2024-08-31 17:23
2024-08-31 17:23 CET
42 Decision - Clasificación SC2-SC1 Times ↗ 2024-08-31 17:25
2024-08-31 17:25 CET
43 Infringement - Car 43 - Practice Start ↗ 43 Franco Colapinto 2024-08-31 18:51
43 Franco Colapinto 2024-08-31 18:51 CET
44 Infringement - Car 11 - Alleged failure to follow Carrera Director's instructions (Escape Road) ↗ 11 Sergio Pérez 2024-08-31 18:47
11 Sergio Pérez 2024-08-31 18:47 CET
45 Infringement - Car 81 - Unsafe release ↗ 81 Oscar Piastri 2024-08-31 19:06
81 Oscar Piastri 2024-08-31 19:06 CET
46 P3 and Clasificación Scrutineering ↗ 2024-08-31 19:16
2024-08-31 19:16 CET
47 Carrera Director's Event Notes V4 ↗ 2024-08-31 19:26
2024-08-31 19:26 CET
48 Final Clasificación Classification ↗ 2024-08-31 19:31
2024-08-31 19:31 CET
49 Provisional Starting Parrilla ↗ 2024-08-31 19:33
2024-08-31 19:33 CET
50 Pre-Carrera Procedure ↗ 2024-09-01 11:56
2024-09-01 11:56 CET
51 Post-Carrera Procedure ↗ 2024-09-01 11:58
2024-09-01 11:58 CET
52 Parts and Parameters been replaced and or changed during Parc Fermé ↗ 2024-09-01 12:57
2024-09-01 12:57 CET
53 Final Starting Parrilla ↗ 2024-09-01 13:00
2024-09-01 13:00 CET
54 Infringement - Car 3 - Forcing Car 27 off the track ↗ 3 Daniel Ricciardo 2024-09-01 16:11
3 Daniel Ricciardo 2024-09-01 16:11 CET
55 Infringement - Car 27 - Causing a collision ↗ 27 Nico Hülkenberg 2024-09-01 16:28
27 Nico Hülkenberg 2024-09-01 16:28 CET
56 Infringement - Car 3 - Failing to serve time penalty correctly ↗ 3 Daniel Ricciardo 2024-09-01 16:36
3 Daniel Ricciardo 2024-09-01 16:36 CET
57 Infringement - Car 20 - Causing a collision ↗ 20 Kevin Magnussen 2024-09-01 16:38
20 Kevin Magnussen 2024-09-01 16:38 CET
58 Infringement - Carrera Deleted Vuelta Times ↗ 2024-09-01 16:35
2024-09-01 16:35 CET
59 Provisional Carrera Classification ↗ 2024-09-01 16:41
2024-09-01 16:41 CET
60 Infringement - Car 20 - Suspension from next Competition ↗ 20 Kevin Magnussen 2024-09-01 17:42
20 Kevin Magnussen 2024-09-01 17:42 CET
61 Carrera Scrutineering ↗ 2024-09-01 18:42
2024-09-01 18:42 CET
63 Final Carrera Classification ↗ 2024-09-01 19:05
2024-09-01 19:05 CET
64 Campeonato Puntos ↗ 2024-09-01 19:10
2024-09-01 19:10 CET
FIA official decisions and documents (fia.com) · PDF original PDF links
Record Basis · Calculation basis
Carrera order is the final classification(post-race penalties applied) · clasificación session data 2003+ · lap times 1996+ · pit stops 2012+ (pit-lane transit, not stationary time) · Abandono = Finished(Finished·+N Vueltas) non-Finished statuses
Fuentes de datos: Jolpica-F1 (Ergast compatible API) · weather·Dirección de carrera OpenF1 (2023+) · Last fetched: 2026-09-05 14:15